Location: Riedlingen
(48.1569°N, 9.4757°E)
Time: 12:28:30
(UTC+01:00)

N. Korean satellite - Visible Passes

Search period start: 25 November 2017 00:00
Search period end: 05 December 2017 00:00
Orbit: 460 x 514 km, 97.2° (Epoch: 25 November)

Date Brightness Start Highest point End Pass type
(mag) Time Alt. Az. Time Alt. Az. Time Alt. Az.
25 Nov 8.7 06:41:42 10° NNE 06:45:08 32° E 06:48:33 10° SSE visible
25 Nov 7.8 17:21:55 10° ESE 17:24:43 22° ENE 17:27:34 10° NNE visible
25 Nov 8.5 18:54:57 10° SSW 18:58:06 30° W 19:01:20 10° NNW visible
26 Nov 9.8 06:18:47 10° NE 06:21:29 18° E 06:24:10 10° SE visible
26 Nov 7.2 18:31:00 10° S 18:34:30 57° W 18:38:06 10° NNW visible
27 Nov 10.4 05:57:04 10° ENE 05:57:45 10° E 05:58:26 10° E visible
27 Nov 6.4 18:07:26 10° SSE 18:11:00 74° ENE 18:14:39 10° N visible
28 Nov 7.4 07:04:29 10° NNE 07:08:13 60° E 07:11:56 10° S visible
28 Nov 7.0 17:44:12 10° SE 17:47:33 38° ENE 17:50:59 10° N visible
28 Nov 9.5 19:18:50 10° SW 19:21:15 17° W 19:23:43 10° NW visible
29 Nov 8.7 06:41:12 10° NNE 06:44:38 32° E 06:48:02 10° SSE visible
29 Nov 7.8 17:21:22 10° ESE 17:24:12 22° ENE 17:27:05 10° NNE visible
29 Nov 8.5 18:54:22 10° SSW 18:57:34 30° W 19:00:51 10° NNW visible
30 Nov 9.8 06:18:16 10° NE 06:20:58 18° E 06:23:38 10° SE visible
30 Nov 7.2 18:30:25 10° S 18:33:57 58° W 18:37:36 10° NNW visible
01 Dec 10.4 05:56:34 10° ENE 05:57:12 10° E 05:57:51 10° E visible
01 Dec 6.4 18:06:50 10° SSE 18:10:25 73° ENE 18:14:06 10° N visible
02 Dec 7.4 07:03:55 10° NNE 07:07:41 60° E 07:11:23 10° S visible
02 Dec 7.0 17:43:35 10° SE 17:46:58 38° ENE 17:50:26 10° N visible
02 Dec 9.5 19:18:12 10° SW 19:20:40 17° W 19:23:11 10° NW visible
03 Dec 8.7 06:40:38 10° NNE 06:44:04 32° E 06:47:27 10° SSE visible
03 Dec 7.8 17:20:43 10° ESE 17:23:36 22° ENE 17:26:31 10° NNE visible
03 Dec 8.5 18:53:43 10° SSW 18:56:58 31° W 19:00:17 10° NNW visible
04 Dec 9.8 06:17:41 10° NE 06:20:22 18° E 06:23:02 10° SE visible
04 Dec 7.2 18:29:45 10° S 18:33:20 58° W 18:37:01 10° NNW visible
